sat.trackr.live / text

‹ back to catalog

HONGYAN 1 (CHONGQING)

NORAD 43914 · 2018-112F

PAYLOAD ACTIVE UNKNOWN

§ Identity

Operator
Country
PRC
Launch date
2018-12-29
Launch site
JSC
Launch vehicle
Mass (kg)
RCS (m²)

External: N2YO · Heavens-Above · Gunter

§ Orbital elements

Epoch: 2026-05-25T04:25:38.264160Z

Period
107.16 min
Inclination
50.0091°
Eccentricity
0.0006677
Mean motion
13.43819208 rev/d
Perigee alt
1,090.1 km
Apogee alt
1,100.1 km
Semi-major
7,473.2 km
B*
3.1283e-5
RAAN
321.6186°
Arg perigee
186.0721°
Mean anomaly
174.0077°
Rev number
36,344

§ Raw data

HONGYAN 1 (CHONGQING)1 43914U 18112F   26145.18447065 -.00000111  00000+0  31283-4 0  99912 43914  50.0091 321.6186 0006677 186.0721 174.0077 13.43819208363441

JSON: /api/v1/satellites/43914 · /tle

For live sub-satellite position, see the globe view (requires WebGL).

§ Visibility from observer

Set your observer location to see the next 7 days of passes ≥ 10°. The values pass through the URL so the page stays shareable.

No JS? Fill the form by hand. The geolocation button needs JavaScript.

§ Radio — SatNOGS DB

ModeDescriptionDownlinkUplink
FM S-band telemetry 2.257 GHz

1 transmitter · refreshed weekly from db.satnogs.org